Location: Bourg-d�Oueil
(42.8588°N, 0.4991°E)
Time: 19:09:37
(UTC+00:00)

Cosmos 1340 - Pass Details

Date: 16 June 2021
Orbit: 498 x 504 km, 81.2° (Epoch: 02 August)

Event Time Altitude Azimuth Distance (km) Brightness Sun altitude
Exits shadow 22:26:33 30° 234° (SW) 916 3.8 -20.4°
Maximum altitude 22:27:53 43° 283° (WNW) 713 3.6 -20.5°
Drops below altitude 10° 22:31:31 10° 357° (N) 1,724 6.4 -20.8°
Sets 22:33:44 0° 4° (N) 2,615 7.4 -20.9°
